EJA252 KTPA-KPBI

Flight info

Callsign EJA252
Flight time 0h 35m
Altitude 29000
Route GANDY8 SABEE VUUDU1
Aircraft CL60/M-SBDE1E2E3FGHIJ1J4J5J7M3RWXYZ/LB1V1D1

Departure

Time 2026-04-16 08:39
Airport Tampa International Airport (KTPA)

Arrival

Time 2026-04-16 09:14
Airport Palm Beach International Airport (KPBI)
Time Latitude Longitude Altitude Speed Heading
2026-04-16 07:56 27.96717 -82.52637 21 ft 0 kts 90°
2026-04-16 08:32 27.96717 -82.52636 21 ft 0 kts 90°
2026-04-16 08:32 27.96734 -82.52638 21 ft 7 kts 307°
2026-04-16 08:33 27.96738 -82.52707 21 ft 9 kts 261°
2026-04-16 08:33 27.96773 -82.52765 21 ft 10 kts
2026-04-16 08:33 27.96863 -82.52761 21 ft 14 kts
2026-04-16 08:33 27.96936 -82.52743 21 ft 5 kts 49°
2026-04-16 08:34 27.96945 -82.52695 23 ft 7 kts 78°
2026-04-16 08:34 27.96993 -82.52673 24 ft 9 kts
2026-04-16 08:34 27.97070 -82.52671 24 ft 13 kts
2026-04-16 08:34 27.97175 -82.52667 24 ft 16 kts
2026-04-16 08:35 27.97303 -82.52671 24 ft 20 kts 352°
2026-04-16 08:35 27.97452 -82.52689 24 ft 23 kts 353°
2026-04-16 08:35 27.97583 -82.52696 24 ft 20 kts
2026-04-16 08:35 27.97734 -82.52691 24 ft 18 kts
2026-04-16 08:36 27.97874 -82.52686 24 ft 21 kts
2026-04-16 08:36 27.98035 -82.52681 24 ft 24 kts
2026-04-16 08:36 27.98198 -82.52676 25 ft 20 kts
2026-04-16 08:36 27.98348 -82.52670 27 ft 22 kts
2026-04-16 08:37 27.98514 -82.52664 27 ft 15 kts
2026-04-16 08:37 27.98613 -82.52661 27 ft 10 kts 353°
2026-04-16 08:37 27.98674 -82.52715 27 ft 9 kts 315°
2026-04-16 08:37 27.98704 -82.52763 27 ft 6 kts 277°
2026-04-16 08:38 27.98697 -82.52814 27 ft 5 kts 226°
2026-04-16 08:38 27.98667 -82.52823 27 ft 4 kts 181°
2026-04-16 08:38 27.98356 -82.52833 24 ft 98 kts 181°
2026-04-16 08:38 27.97407 -82.52872 263 ft 160 kts 180°
2026-04-16 08:39 27.96243 -82.52959 1149 ft 177 kts 185°
2026-04-16 08:39 27.95045 -82.53462 1962 ft 189 kts 202°
2026-04-16 08:39 27.93911 -82.54136 2375 ft 191 kts 205°
2026-04-16 08:39 27.92633 -82.54918 3008 ft 229 kts 206°
2026-04-16 08:40 27.91149 -82.55827 3886 ft 257 kts 206°
2026-04-16 08:40 27.89535 -82.56813 4930 ft 268 kts 206°
2026-04-16 08:40 27.87899 -82.57807 6016 ft 274 kts 207°
2026-04-16 08:40 27.86142 -82.58651 7134 ft 278 kts 190°
2026-04-16 08:41 27.84223 -82.58834 8249 ft 284 kts 179°
2026-04-16 08:41 27.82246 -82.58594 9384 ft 290 kts 169°
2026-04-16 08:41 27.80261 -82.58163 10528 ft 296 kts 168°
2026-04-16 08:41 27.78206 -82.57719 11450 ft 312 kts 168°
2026-04-16 08:42 27.76027 -82.57091 12119 ft 333 kts 158°
2026-04-16 08:42 27.73869 -82.56072 12931 ft 347 kts 156°
2026-04-16 08:42 27.71639 -82.54997 13891 ft 353 kts 156°
2026-04-16 08:42 27.69374 -82.53912 14926 ft 357 kts 156°
2026-04-16 08:43 27.67057 -82.52804 15941 ft 361 kts 156°
2026-04-16 08:43 27.64731 -82.51693 16954 ft 365 kts 156°
2026-04-16 08:43 27.62402 -82.50583 17892 ft 369 kts 156°
2026-04-16 08:43 27.60019 -82.49448 18748 ft 375 kts 156°
2026-04-16 08:44 27.57618 -82.48300 19527 ft 381 kts 156°
2026-04-16 08:44 27.55209 -82.46959 20306 ft 386 kts 152°
2026-04-16 08:44 27.52832 -82.45521 21045 ft 391 kts 152°
2026-04-16 08:44 27.50422 -82.44067 21745 ft 396 kts 152°
2026-04-16 08:45 27.47960 -82.42583 22454 ft 400 kts 152°
2026-04-16 08:45 27.45514 -82.41110 23153 ft 404 kts 152°
2026-04-16 08:45 27.43009 -82.39603 23765 ft 411 kts 152°
2026-04-16 08:45 27.40453 -82.38066 24419 ft 416 kts 152°
2026-04-16 08:46 27.37890 -82.36527 25021 ft 422 kts 152°
2026-04-16 08:46 27.35299 -82.34972 25623 ft 427 kts 152°
2026-04-16 08:46 27.32638 -82.33375 26208 ft 433 kts 152°
2026-04-16 08:46 27.29928 -82.31752 26745 ft 439 kts 152°
2026-04-16 08:47 27.27218 -82.30129 27067 ft 448 kts 152°
2026-04-16 08:47 27.24391 -82.28437 27138 ft 463 kts 152°
2026-04-16 08:47 27.21503 -82.26710 27122 ft 473 kts 152°
2026-04-16 08:47 27.18611 -82.24981 27021 ft 469 kts 152°
2026-04-16 08:48 27.15753 -82.23274 26511 ft 460 kts 152°
2026-04-16 08:48 27.12955 -82.21603 25949 ft 451 kts 152°
2026-04-16 08:48 27.10201 -82.19950 25380 ft 444 kts 150°
2026-04-16 08:48 27.07710 -82.17935 24839 ft 435 kts 137°
2026-04-16 08:49 27.05611 -82.15604 24661 ft 418 kts 134°
2026-04-16 08:49 27.03546 -82.13296 24530 ft 414 kts 135°
2026-04-16 08:49 27.01509 -82.11027 24295 ft 417 kts 135°
2026-04-16 08:49 26.99449 -82.08733 24067 ft 416 kts 135°
2026-04-16 08:50 26.97370 -82.06420 23839 ft 415 kts 135°
2026-04-16 08:50 26.95309 -82.04128 23600 ft 414 kts 135°
2026-04-16 08:50 26.93278 -82.01871 23371 ft 412 kts 135°
2026-04-16 08:50 26.91232 -81.99599 23140 ft 410 kts 135°
2026-04-16 08:51 26.89193 -81.97336 22908 ft 408 kts 135°
2026-04-16 08:51 26.87151 -81.95072 22669 ft 406 kts 135°
2026-04-16 08:51 26.85151 -81.92855 22447 ft 404 kts 135°
2026-04-16 08:51 26.83196 -81.90605 22211 ft 402 kts 129°
2026-04-16 08:52 26.81735 -81.87974 21983 ft 398 kts 113°
2026-04-16 08:52 26.80673 -81.85102 21763 ft 397 kts 111°
2026-04-16 08:52 26.79633 -81.82259 21558 ft 395 kts 111°
2026-04-16 08:52 26.78588 -81.79419 21345 ft 394 kts 111°
2026-04-16 08:53 26.77547 -81.76591 21139 ft 393 kts 111°
2026-04-16 08:53 26.76513 -81.73785 20933 ft 391 kts 111°
2026-04-16 08:53 26.75466 -81.70946 20723 ft 390 kts 111°
2026-04-16 08:53 26.74438 -81.68162 20523 ft 388 kts 111°
2026-04-16 08:54 26.73410 -81.65381 20322 ft 387 kts 111°
2026-04-16 08:54 26.72373 -81.62577 20105 ft 386 kts 111°
2026-04-16 08:54 26.71357 -81.59834 19905 ft 385 kts 111°
2026-04-16 08:54 26.70333 -81.57071 19701 ft 383 kts 111°
2026-04-16 08:55 26.69309 -81.54308 19501 ft 382 kts 111°
2026-04-16 08:55 26.68326 -81.51576 19294 ft 380 kts 107°
2026-04-16 08:55 26.67847 -81.48701 19125 ft 377 kts 90°
2026-04-16 08:55 26.68130 -81.45770 18666 ft 376 kts 75°
2026-04-16 08:56 26.68784 -81.42996 18101 ft 372 kts 74°
2026-04-16 08:56 26.69436 -81.40245 17696 ft 364 kts 74°
2026-04-16 08:56 26.70082 -81.37511 17253 ft 362 kts 74°
2026-04-16 08:56 26.70722 -81.34798 16826 ft 360 kts 75°
2026-04-16 08:57 26.71363 -81.32076 16205 ft 361 kts 75°
2026-04-16 08:57 26.71989 -81.29412 15846 ft 351 kts 75°
2026-04-16 08:57 26.72611 -81.26765 15409 ft 350 kts 75°
2026-04-16 08:57 26.73231 -81.24123 14996 ft 348 kts 75°
2026-04-16 08:58 26.73837 -81.21535 14596 ft 347 kts 75°
2026-04-16 08:58 26.74449 -81.18916 14259 ft 345 kts 75°
2026-04-16 08:58 26.75049 -81.16348 13987 ft 344 kts 75°
2026-04-16 08:58 26.75659 -81.13733 13660 ft 344 kts 75°
2026-04-16 08:59 26.76255 -81.11174 13326 ft 340 kts 75°
2026-04-16 08:59 26.76851 -81.08615 12997 ft 339 kts 75°
2026-04-16 08:59 26.77441 -81.06076 12673 ft 336 kts 75°
2026-04-16 08:59 26.78032 -81.03535 12348 ft 334 kts 75°
2026-04-16 09:00 26.78597 -81.01038 12024 ft 333 kts 78°
2026-04-16 09:00 26.78828 -80.98457 11704 ft 331 kts 86°
2026-04-16 09:00 26.78928 -80.95940 11386 ft 324 kts 86°
2026-04-16 09:00 26.79034 -80.93425 11076 ft 316 kts 86°
2026-04-16 09:01 26.79236 -80.88650 10483 ft 302 kts 86°
2026-04-16 09:01 26.79334 -80.86334 10204 ft 294 kts 86°
2026-04-16 09:01 26.79430 -80.84069 9928 ft 289 kts 86°
2026-04-16 09:02 26.79525 -80.81809 9642 ft 289 kts 86°
2026-04-16 09:02 26.79615 -80.79585 9361 ft 287 kts 86°
2026-04-16 09:02 26.79696 -80.77339 9085 ft 286 kts 88°
2026-04-16 09:02 26.79377 -80.75161 8820 ft 286 kts 107°
2026-04-16 09:03 26.78690 -80.73083 8514 ft 286 kts 109°
2026-04-16 09:03 26.77995 -80.70993 8228 ft 284 kts 109°
2026-04-16 09:03 26.77312 -80.68932 7948 ft 282 kts 109°
2026-04-16 09:03 26.76628 -80.66869 7656 ft 280 kts 109°
2026-04-16 09:04 26.75957 -80.64848 7368 ft 277 kts 109°
2026-04-16 09:04 26.75287 -80.62833 7095 ft 269 kts 109°
2026-04-16 09:04 26.74645 -80.60901 6822 ft 262 kts 109°
2026-04-16 09:04 26.74018 -80.59018 6556 ft 255 kts 109°
2026-04-16 09:05 26.73488 -80.57153 6299 ft 247 kts 101°
2026-04-16 09:05 26.73149 -80.55286 6023 ft 241 kts 100°
2026-04-16 09:05 26.72822 -80.53479 5744 ft 237 kts 100°
2026-04-16 09:05 26.72499 -80.51704 5477 ft 232 kts 100°
2026-04-16 09:06 26.72176 -80.49944 5270 ft 224 kts 100°
2026-04-16 09:06 26.71871 -80.48284 5074 ft 219 kts 101°
2026-04-16 09:06 26.71563 -80.46618 4972 ft 217 kts 101°
2026-04-16 09:06 26.71254 -80.44944 4719 ft 225 kts 101°
2026-04-16 09:07 26.70939 -80.43242 4434 ft 222 kts 101°
2026-04-16 09:07 26.70625 -80.41560 4144 ft 219 kts 101°
2026-04-16 09:07 26.70317 -80.39906 3904 ft 213 kts 101°
2026-04-16 09:07 26.70020 -80.38319 3709 ft 206 kts 101°
2026-04-16 09:08 26.69730 -80.36772 3515 ft 200 kts 101°
2026-04-16 09:08 26.69452 -80.35293 3342 ft 186 kts 101°
2026-04-16 09:08 26.69283 -80.33901 3157 ft 178 kts 92°
2026-04-16 09:08 26.69241 -80.32521 2976 ft 175 kts 92°
2026-04-16 09:09 26.69186 -80.31158 2966 ft 176 kts 92°
2026-04-16 09:09 26.69129 -80.29797 2986 ft 170 kts 92°
2026-04-16 09:09 26.69075 -80.28521 2991 ft 161 kts 92°
2026-04-16 09:09 26.69023 -80.27275 2832 ft 160 kts 92°
2026-04-16 09:10 26.68972 -80.26060 2658 ft 155 kts 92°
2026-04-16 09:10 26.68920 -80.24841 2455 ft 155 kts 92°
2026-04-16 09:10 26.68870 -80.23653 2262 ft 154 kts 92°
2026-04-16 09:10 26.68819 -80.22441 2063 ft 154 kts 92°
2026-04-16 09:11 26.68768 -80.21252 1864 ft 153 kts 92°
2026-04-16 09:11 26.68720 -80.20135 1669 ft 133 kts 92°
2026-04-16 09:11 26.68680 -80.19132 1500 ft 124 kts 92°
2026-04-16 09:11 26.68640 -80.18188 1347 ft 121 kts 93°
2026-04-16 09:12 26.68597 -80.17239 1188 ft 120 kts 93°
2026-04-16 09:12 26.68552 -80.16315 1031 ft 121 kts 93°
2026-04-16 09:12 26.68512 -80.15366 882 ft 122 kts 92°
2026-04-16 09:12 26.68479 -80.14428 719 ft 120 kts 93°
2026-04-16 09:13 26.68439 -80.13487 562 ft 122 kts 94°
2026-04-16 09:13 26.68388 -80.12527 420 ft 124 kts 94°
2026-04-16 09:13 26.68350 -80.11575 254 ft 121 kts 93°
2026-04-16 09:13 26.68310 -80.10609 100 ft 126 kts 94°
2026-04-16 09:14 26.68267 -80.09676 18 ft 109 kts 91°
2026-04-16 09:14 26.68242 -80.09040 17 ft 55 kts 94°
2026-04-16 09:14 26.68235 -80.08865 17 ft 0 kts 95°
2026-04-16 09:14 26.68210 -80.08839 17 ft 5 kts 196°
2026-04-16 09:15 26.68173 -80.08894 17 ft 11 kts 232°
2026-04-16 09:15 26.68126 -80.08952 17 ft 4 kts 227°
2026-04-16 09:15 26.68116 -80.08953 17 ft 2 kts 135°
2026-04-16 09:15 26.68125 -80.08914 17 ft 7 kts 78°
2026-04-16 09:16 26.68124 -80.08838 17 ft 11 kts 93°
2026-04-16 09:16 26.68119 -80.08735 17 ft 15 kts 93°
2026-04-16 09:16 26.68115 -80.08604 17 ft 18 kts 94°
2026-04-16 09:16 26.68107 -80.08459 17 ft 11 kts 93°
2026-04-16 09:17 26.68103 -80.08354 17 ft 15 kts 93°
2026-04-16 09:17 26.68097 -80.08247 17 ft 13 kts 94°
2026-04-16 09:17 26.68084 -80.08164 17 ft 9 kts 137°
2026-04-16 09:17 26.68020 -80.08173 17 ft 9 kts 208°
2026-04-16 09:18 26.67965 -80.08161 17 ft 8 kts 151°
2026-04-16 09:18 26.67936 -80.08150 17 ft 1 kts 198°
2026-04-16 09:18 26.67932 -80.08157 17 ft 0 kts 254°